Lapse_Rate
5.9 6.0 6.3 6.2 6.4 6.8 7.3 7.4 7.6 7.8 7.5 7.3 6.9 6.5 6.3 6.0 5.7 5.6 5.5 5.4 5.5 5.3 5.1 5.2 4.8 5.0 5.1 4.9 4.8 4.6 4.5 4.0 3.8 3.9 4.7 5.8 5.7 6.1 6.3 6.8 7.0 7.2 7.1 7.1
5.8 6.4 6.2 6.3 6.5 6.6 7.3 7.6 7.3 7.2 7.0 7.1 7.0 6.4 6.1 5.7 5.4 5.4 5.4 5.4 5.4 5.4 4.8 4.9 5.1 5.1 5.1 5.1 4.9 4.7 4.6 4.7 4.4 4.3 4.7 4.5 5.4 5.3 6.1 6.6 6.3 5.9 6.4 6.3
5.6 6.5 6.4 6.7 7.2 7.6 7.8 7.3 7.0 6.8 6.8 6.5 6.5 6.0 5.8 5.4 5.4 5.4 5.3 5.4 4.8 5.1 5.6 5.5 5.5 5.4 5.3 5.2 5.1 5.2 5.0 4.6 4.8 4.5 4.5 4.7 4.8 4.9 5.2 5.4 5.2 6.0 5.5 5.6
5.8 6.4 6.4 7.4 7.3 7.3 7.3 7.0 6.7 6.4 6.1 5.9 5.7 5.7 5.5 5.4 5.4 5.4 5.3 4.9 5.4 5.3 5.4 5.4 5.5 5.5 5.2 5.2 5.3 5.3 5.5 5.4 5.4 5.1 5.3 5.2 4.8 4.7 4.5 4.9 4.8 5.1 4.5 5.2
6.0 6.7 7.1 7.4 7.2 7.1 7.1 6.9 6.5 6.1 5.9 5.6 5.5 5.5 5.5 5.4 5.4 5.2 5.3 5.5 5.5 5.5 5.6 5.6 5.5 5.5 5.4 5.5 5.8 6.0 6.1 5.8 5.6 5.7 5.5 5.6 5.7 5.5 5.2 5.5 5.6 5.3 5.3 5.2
6.3 6.7 7.0 6.9 7.1 7.2 6.7 6.7 7.0 6.6 5.9 5.8 5.7 5.5 5.5 5.4 5.2 5.3 5.4 5.5 5.6 5.6 5.6 5.6 5.8 5.7 5.6 6.2 6.3 6.6 6.3 6.0 5.8 5.8 5.9 6.0 5.8 5.9 6.0 5.9 5.7 5.4 5.4 5.3
6.2 6.4 6.9 7.0 6.9 6.8 6.1 6.8 6.9 6.5 6.1 6.0 5.8 5.7 5.5 5.5 5.4 5.4 5.6 5.7 5.8 5.9 5.8 5.9 6.0 5.8 5.9 6.1 6.5 6.4 6.1 6.0 6.1 6.2 6.2 6.2 6.0 6.3 6.0 5.9 5.7 6.0 6.0 5.9
6.4 6.6 6.7 6.4 6.7 6.7 6.9 6.8 6.8 6.5 6.1 6.0 5.7 5.8 5.6 5.6 5.6 5.6 5.7 5.8 5.9 6.0 6.0 5.9 5.8 5.7 5.9 6.1 6.1 5.9 5.8 5.9 6.0 6.0 6.1 6.1 6.1 6.2 6.1 6.3 6.4 6.6 6.6 6.4
7.2 7.1 7.1 7.0 7.1 6.8 6.8 6.9 6.7 6.4 6.2 5.9 5.7 5.7 5.6 5.7 5.7 5.8 5.8 6.0 6.0 5.9 5.9 5.9 5.8 5.9 5.8 5.9 5.8 5.8 5.8 5.9 6.1 6.0 6.0 6.1 6.2 6.3 6.3 6.2 6.4 6.4 6.4 6.4
7.4 7.4 7.2 7.3 7.0 7.1 7.2 6.8 6.6 6.3 6.1 5.9 5.7 5.7 5.8 5.9 5.8 5.8 5.9 6.0 5.9 5.9 5.9 5.8 5.8 5.8 5.9 6.0 6.0 6.1 6.3 6.5 6.6 6.6 6.6 6.5 6.4 6.4 6.6 6.8 6.8 6.8 6.7 6.7
7.6 7.5 7.3 7.0 6.9 6.9 6.9 6.7 6.5 6.5 6.3 5.9 5.9 5.9 5.9 6.0 5.9 6.0 6.0 6.0 5.9 5.8 5.8 5.7 5.9 5.8 6.0 6.1 6.2 6.4 6.5 6.6 6.8 6.9 7.1 7.1 7.2 7.2 7.1 6.9 6.8 6.8 6.7 6.6
7.7 7.6 7.4 7.1 6.7 6.5 6.4 6.4 6.5 6.4 6.4 6.1 5.9 5.8 5.9 6.1 6.1 6.0 6.0 5.9 5.9 5.9 5.9 5.9 6.0 6.1 6.1 6.1 6.2 6.4 6.4 6.5 6.6 6.5 6.5 6.5 6.5 6.6 6.8 6.8 6.6 6.7 6.6 6.4
7.8 7.4 7.2 6.9 6.9 6.6 6.2 6.3 6.2 6.2 6.1 5.9 6.0 5.8 5.8 6.0 6.0 6.0 6.0 5.9 6.0 5.9 6.0 6.0 6.1 6.1 6.2 6.3 6.4 6.5 6.5 6.6 6.6 6.6 6.5 6.5 6.5 6.4 6.2 6.2 6.3 6.1 6.1 6.2
7.8 7.4 7.2 7.0 6.7 6.4 6.3 6.2 6.1 6.1 6.0 5.9 5.9 5.8 5.8 5.9 5.9 6.1 6.0 5.9 6.0 6.1 6.1 6.0 6.0 6.0 6.0 6.1 6.3 6.3 6.3 6.3 6.3 6.3 6.2 6.2 6.1 6.0 6.0 5.9 5.7 5.5 5.3 5.3
7.7 7.7 7.4 7.1 6.7 6.2 6.1 6.1 6.1 6.1 6.1 6.0 5.8 5.5 5.7 5.7 5.9 6.0 6.0 5.9 6.0 6.1 6.1 6.1 6.1 6.1 6.1 6.1 6.1 6.0 6.1 6.0 5.9 5.8 5.6 5.5 5.5 5.5 5.6 5.6 5.4 5.1 4.7 4.3
8.0 7.7 7.4 7.2 6.8 6.4 6.2 6.1 6.1 6.2 6.0 5.9 5.7 5.5 5.7 6.0 5.9 5.8 5.9 5.9 6.0 6.0 6.0 6.0 5.9 6.0 6.1 6.1 6.0 6.0 6.0 5.9 5.8 5.6 5.4 5.4 5.3 5.3 5.2 5.0 4.7 4.5 4.2 3.9
8.1 7.8 7.4 7.2 7.0 6.6 6.4 6.2 6.2 6.1 6.0 5.9 5.5 5.6 5.7 5.5 5.8 5.9 5.8 6.1 5.9 6.0 5.9 5.8 5.8 5.9 5.9 5.9 5.9 5.9 5.8 5.8 5.7 5.5 5.3 5.2 5.1 5.0 4.8 4.6 4.3 4.1 3.8 3.4
7.9 7.7 7.4 6.9 6.8 6.6 6.5 6.4 6.4 6.3 6.2 5.8 5.3 5.6 5.7 5.8 5.8 5.8 5.8 5.9 5.9 5.9 5.8 5.8 5.8 5.7 5.7 5.8 5.9 5.9 5.8 5.6 5.4 5.2 5.0 4.9 4.8 4.6 4.3 4.0 3.8 3.5 3.2 2.9
7.8 7.4 7.0 6.7 6.7 6.6 6.4 6.5 6.5 6.4 6.1 5.8 5.6 5.7 5.8 6.0 5.9 5.8 5.8 5.8 5.8 5.9 5.9 5.7 5.6 5.5 5.6 5.7 5.6 5.6 5.5 5.4 5.2 4.9 4.7 4.5 4.3 4.1 3.8 3.5 3.3 3.0 2.6 2.3
7.6 7.2 6.9 6.7 6.6 6.6 6.5 6.4 6.3 6.1 6.0 5.9 5.8 6.0 5.7 5.7 5.9 5.9 5.8 5.7 5.8 5.7 5.6 5.6 5.6 5.6 5.7 5.6 5.6 5.5 5.3 5.1 4.9 4.6 4.4 4.2 4.1 3.8 3.5 3.2 3.0 2.7 2.4 2.2
7.2 6.9 6.8 6.6 6.6 6.4 6.4 6.2 6.0 6.1 6.1 5.8 5.9 5.9 5.8 5.7 5.8 5.8 5.8 5.7 5.7 5.6 5.7 5.6 5.6 5.5 5.4 5.3 5.2 5.1 5.0 4.9 4.6 4.4 4.2 4.0 3.8 3.5 3.3 3.1 2.8 2.5 2.4 2.3
7.1 6.9 6.6 6.4 6.3 6.2 6.2 6.1 6.2 6.1 6.1 5.7 6.0 5.9 5.8 5.6 5.7 5.9 5.9 5.7 5.6 5.7 5.7 5.6 5.6 5.4 5.3 5.1 4.9 4.9 4.8 4.6 4.4 4.2 4.0 3.8 3.6 3.4 3.2 3.0 2.8 2.7 2.5 2.3
6.9 6.8 6.6 6.4 6.4 6.3 6.2 6.1 6.1 6.1 5.8 5.8 5.8 5.7 5.6 5.6 5.8 6.1 6.0 5.8 5.7 5.8 5.6 5.5 5.3 5.1 4.9 4.8 4.7 4.6 4.5 4.5 4.3 4.0 3.9 3.7 3.5 3.2 3.0 2.9 2.8 2.6 2.4 2.4
6.7 6.6 6.6 6.5 6.4 6.3 6.2 6.1 6.1 5.9 5.9 5.9 5.9 5.8 5.7 5.8 6.1 6.0 5.8 5.9 5.8 5.6 5.5 5.3 5.0 4.8 4.6 4.6 4.5 4.5 4.5 4.4 4.1 3.9 3.8 3.5 3.2 3.1 3.0 2.8 2.7 2.6 2.6 2.6
6.6 6.5 6.5 6.5 6.5 6.3 6.2 6.1 6.0 5.9 6.0 6.0 6.0 5.9 5.9 5.8 6.0 5.8 5.8 5.7 5.6 5.3 5.1 4.9 4.7 4.6 4.4 4.3 4.4 4.5 4.5 4.3 4.0 3.8 3.5 3.4 3.3 3.1 2.9 2.9 2.8 2.9 3.1 3.4
6.7 6.6 6.6 6.6 6.5 6.5 6.4 6.2 6.1 6.0 6.1 6.0 6.0 5.9 5.8 5.8 5.9 5.8 5.6 5.5 5.3 5.2 5.0 4.7 4.6 4.7 4.6 4.6 4.6 4.6 4.4 4.0 3.8 3.6 3.4 3.3 3.1 3.0 3.0 3.0 3.1 3.4 3.8 4.1
6.7 6.7 6.7 6.6 6.5 6.4 6.3 6.3 6.1 6.1 6.0 6.0 6.0 5.9 5.8 5.7 5.6 5.4 5.2 5.0 4.8 4.8 4.7 4.6 4.6 4.7 4.7 4.8 4.7 4.4 4.1 3.8 3.7 3.5 3.3 3.2 3.1 3.1 3.1 3.3 3.7 4.1 4.2 4.1
Wind_Speed
4 8 11 12 12 12 7 9 4 5 4 8 7 7 4 5 5 8 11 12 12 13 13 14 14 15 14 15 16 16 16 17 17 16 16 15 16 16 17 19 17 18 21 21
5 11 14 17 14 13 10 9 2 6 3 9 11 8 6 5 6 8 10 11 11 13 14 14 15 15 15 16 16 16 16 18 17 17 17 17 17 16 18 20 19 19 21 21
5 7 6 8 13 12 8 6 4 6 5 14 11 8 6 6 6 7 9 9 11 12 12 12 13 14 15 15 14 16 16 17 18 17 17 16 16 16 19 21 17 22 21 22
3 5 4 5 3 4 4 5 10 12 13 12 13 9 8 6 6 7 8 8 9 9 10 11 12 13 12 13 15 15 16 17 17 17 17 17 17 18 16 15 17 16 17 17
2 3 3 1 2 3 3 5 9 13 15 14 14 13 7 7 8 7 6 5 5 6 7 8 10 11 11 13 14 15 18 17 17 17 17 17 17 17 16 15 16 16 17 20
2 3 3 3 4 5 1 4 12 17 16 15 13 4 4 9 9 8 4 2 3 4 5 7 9 9 7 10 12 14 13 15 14 15 15 15 15 15 13 13 15 13 17 19
6 4 4 5 6 7 1 4 13 16 16 16 6 1 13 11 9 7 3 3 2 3 3 4 6 6 9 7 12 8 8 9 13 14 15 14 14 14 14 14 15 16 17 18
4 4 7 3 4 4 3 4 7 13 13 10 14 13 12 9 7 7 6 3 2 3 4 5 6 5 7 11 7 7 7 6 10 12 11 12 15 14 15 14 15 16 16 14
4 2 1 2 3 1 4 5 3 8 12 18 15 12 11 9 8 6 5 4 2 3 4 5 6 7 10 9 6 7 8 7 6 9 9 10 12 13 12 13 13 13 12 12
3 4 5 3 3 5 7 10 10 13 15 15 16 12 9 8 8 5 4 4 5 4 5 7 6 7 7 10 8 6 9 8 7 4 7 6 6 8 9 10 11 11 11 11
2 4 4 2 6 9 11 15 14 13 13 14 15 11 9 7 6 5 4 3 4 5 6 7 7 6 7 9 10 9 5 7 7 7 6 3 4 5 8 11 13 10 9 8
5 10 5 6 9 13 14 13 13 15 13 11 12 12 11 8 7 7 5 6 7 8 9 9 8 9 9 9 9 9 9 7 8 7 7 7 6 7 16 19 22 26 27 16
3 9 4 13 11 12 14 13 13 13 12 14 11 12 10 6 6 12 9 9 9 9 9 7 7 8 9 7 8 9 8 8 6 8 8 8 7 7 7 7 17 26 25 26
13 14 9 11 7 11 13 12 15 12 12 11 11 10 11 9 11 9 8 9 9 9 9 7 7 7 8 9 5 6 7 7 4 6 5 6 5 5 5 7 7 4 15 19
7 0 9 11 13 12 13 13 13 12 11 7 11 11 11 11 9 6 6 10 10 8 7 5 5 5 7 9 8 4 5 4 4 4 4 5 3 4 4 4 4 3 3 6
6 10 12 15 13 13 13 14 13 9 11 11 11 11 11 11 8 7 6 8 6 6 5 5 4 4 5 6 7 3 3 6 4 3 3 4 4 4 4 4 4 4 4 3
11 12 13 13 12 13 14 12 10 11 11 12 12 12 12 12 9 7 5 6 6 6 5 3 1 4 4 3 3 3 2 4 5 3 2 2 2 2 3 3 3 3 3 2
11 7 11 12 11 9 11 10 11 12 11 13 11 11 10 8 7 6 5 5 6 4 3 2 3 3 2 4 3 4 2 3 3 2 2 4 3 3 3 3 3 3 3 3
11 11 10 11 11 9 10 8 10 11 12 12 12 9 7 7 7 5 4 4 4 4 3 4 5 3 1 3 4 3 2 3 3 2 3 4 4 4 4 4 3 3 3 3
9 9 12 9 8 7 10 10 12 11 9 11 11 8 7 6 6 5 4 4 5 3 5 5 3 1 2 5 7 2 2 3 3 3 3 4 4 3 3 5 5 5 4 4
8 9 10 11 11 11 12 10 12 11 9 11 11 9 8 7 6 5 4 3 3 4 5 4 1 2 3 3 4 3 3 3 3 3 4 3 3 4 4 4 4 4 5 6
8 9 10 11 11 10 9 9 10 10 10 9 8 7 8 6 5 3 3 4 4 6 2 4 3 5 3 5 2 3 3 4 3 4 3 3 4 4 4 3 3 5 6 6
8 9 9 10 10 10 8 9 8 10 10 9 9 9 8 6 5 4 3 4 4 4 6 4 6 5 5 5 3 4 4 4 3 3 3 3 3 3 2 4 5 6 5 5
8 7 8 8 10 10 9 6 8 7 6 7 7 7 5 4 1 3 6 8 7 5 6 4 5 9 11 4 4 4 3 3 4 4 3 4 3 3 4 4 6 4 4 5
8 8 9 9 9 6 9 10 9 9 9 9 9 6 2 3 5 4 5 4 7 8 5 8 9 12 7 1 4 3 3 4 4 3 3 3 4 4 3 4 3 3 2 7
9 6 6 8 7 7 7 8 6 6 6 5 3 3 3 5 5 6 5 5 5 7 5 3 6 8 6 4 3 4 5 5 4 3 3 3 3 2 3 5 9 10 12 14
6 7 6 5 6 7 7 7 7 7 6 7 6 4 6 5 5 5 5 5 5 5 4 3 8 7 8 7 7 9 11 11 13 10 10 10 11 10 12 13 13 15 14 14
Wind_Direction
278 281 281 275 264 266 248 257 202 209 144 168 137 128 108 73 42 40 32 23 13 12 1 354 355 351 360 360 360 357 3 8 13 12 20 23 30 32 33 42 40 41 41 37
293 275 255 253 255 259 247 256 217 155 132 129 124 122 112 71 54 45 36 24 15 12 1 354 356 354 1 3 4 3 9 11 9 13 17 21 30 29 42 43 38 44 43 43
265 268 286 263 231 232 239 213 175 222 151 146 140 131 103 89 67 54 40 25 19 12 3 351 354 359 3 2 2 13 13 15 15 14 19 19 21 29 35 42 31 42 38 37
271 324 245 239 352 311 104 92 104 110 138 143 131 115 105 80 86 65 45 30 25 6 2 355 355 5 2 7 16 17 20 19 20 17 21 21 25 28 32 38 43 41 36 40
209 225 255 213 216 177 166 213 154 142 135 130 129 117 94 103 91 82 59 43 26 359 359 357 1 2 6 14 20 22 25 21 20 20 21 19 25 29 28 35 41 41 37 38
282 262 281 199 187 127 312 271 163 144 147 154 160 158 144 127 111 94 78 56 22 341 1 11 2 357 6 15 21 21 18 24 24 28 27 27 25 25 28 36 37 39 41 37
226 254 272 136 159 133 159 250 145 151 154 160 168 37 132 124 122 122 135 102 15 342 358 345 340 351 19 5 20 351 3 24 27 29 32 28 32 31 28 31 34 34 36 33
194 231 244 39 98 199 205 45 138 148 152 133 119 117 120 129 129 137 142 113 58 28 5 350 351 12 16 23 337 351 357 14 32 29 33 28 31 31 32 33 35 33 32 33
171 191 146 4 94 113 101 121 92 115 132 132 131 135 142 144 134 137 155 148 134 79 16 3 6 24 24 358 355 8 18 13 35 35 27 32 35 35 36 36 36 32 30 28
108 186 172 92 91 80 108 111 109 121 131 135 136 147 148 140 138 131 123 130 159 112 58 39 20 23 18 8 5 25 24 10 10 38 42 28 38 41 45 41 37 36 32 30
84 131 109 209 120 121 109 114 119 123 130 136 136 140 132 126 130 143 157 139 111 101 82 58 30 15 19 19 10 18 20 21 14 20 25 26 46 61 57 56 52 43 34 22
214 185 161 161 143 134 128 132 133 131 132 135 135 135 139 155 164 167 160 123 95 81 72 57 37 19 11 30 23 26 26 34 27 25 25 33 33 32 55 66 59 50 39 37
191 144 120 137 140 140 132 139 139 140 143 143 149 157 160 135 115 104 94 90 87 87 84 70 41 21 4 354 42 38 30 25 33 32 27 28 32 36 29 4 37 49 43 33
108 103 112 149 156 142 137 150 149 142 147 161 161 130 122 111 103 96 92 95 83 79 78 70 48 16 358 1 42 41 29 15 30 35 24 16 13 22 28 24 24 19 35 34
171 143 146 133 140 146 154 154 150 153 164 145 125 127 115 112 104 101 103 99 95 86 78 73 56 10 0 3 10 35 35 13 20 34 20 13 7 19 26 21 14 5 356 21
185 131 143 146 153 159 161 159 158 151 131 124 119 116 117 115 116 101 84 125 119 109 94 72 43 323 357 10 4 12 12 14 34 57 17 11 9 22 16 15 12 10 7 355
143 154 156 158 161 164 169 166 148 138 130 126 124 125 119 115 113 111 104 104 111 115 112 114 309 322 335 7 7 330 27 11 3 39 37 356 1 15 3 5 355 360 333 326
162 154 162 160 157 160 168 163 145 140 136 131 124 120 127 132 140 139 137 113 95 86 123 203 270 273 278 341 350 353 38 16 1 5 359 4 355 3 357 352 344 341 319 324
147 151 151 145 156 157 167 144 123 116 122 127 124 130 131 133 141 144 129 129 135 128 241 228 262 241 211 345 20 349 8 32 10 348 357 360 9 359 2 352 341 333 320 325
105 107 121 138 139 125 107 114 116 116 127 123 120 119 127 136 143 140 143 183 192 176 176 202 246 275 97 16 6 350 44 38 20 7 9 12 20 3 347 355 356 348 340 332
109 119 110 108 107 113 121 129 126 133 136 135 136 146 149 151 151 155 138 138 219 177 183 191 45 100 66 356 357 25 49 41 34 19 22 17 1 358 5 353 350 342 356 357
112 113 118 120 119 116 123 124 122 130 133 126 121 134 142 154 159 184 225 182 179 192 167 127 106 83 38 8 13 54 48 45 35 33 25 14 22 16 357 351 347 4 18 0
119 124 125 129 131 125 115 123 132 142 141 142 147 155 166 172 174 160 162 162 153 144 120 112 105 69 33 31 57 54 51 49 47 29 32 32 12 2 354 3 17 15 355 354
121 120 116 115 120 123 130 133 135 128 125 140 155 173 165 166 187 121 109 121 136 108 125 122 100 70 72 63 47 48 44 51 43 46 25 18 18 12 13 17 16 355 349 359
129 128 127 135 140 144 139 146 137 145 152 160 170 180 180 92 131 131 120 123 116 120 121 121 100 95 89 76 60 56 51 62 53 46 19 25 24 19 17 20 354 342 336 339
144 147 154 159 153 147 151 153 153 156 158 149 145 156 117 113 118 125 134 129 122 137 133 118 106 97 87 75 77 64 61 66 48 22 32 38 29 17 20 356 347 342 334 328
138 141 154 170 153 154 160 159 154 165 155 154 154 157 133 125 119 126 118 118 102 103 105 108 100 93 82 81 72 72 70 63 40 26 45 44 41 32 2 350 348 338 334 334